Location: ?????????
(38.2333°N, 23.8915°E)
Time: 02:01:41
(UTC+00:00)

Daily predictions for brighter satellites

Satellite Brightness Start Highest point End
(mag) Time Altitude Azimuth Time Altitude Azimuth Time Altitude Azimuth
Cosmos 1943 Rocket 3.7 02:25:02 29° NE 02:25:02 29° NE 02:27:47 10° NNE
CENTAUR R/B 3.3 02:28:55 41° NNE 02:28:55 41° NNE 02:33:17 10° NNE
Cosmos 2082 Rocket 3.9 02:33:43 23° SSE 02:33:43 23° SSE 02:35:44 10° SSE
NOSS 3-2 (C) 3.6 02:46:05 58° NNE 02:46:05 58° NNE 02:51:03 10° NNE
Cosmos 2344 3.8 02:53:31 46° NNW 02:53:31 46° NNW 02:59:50 10° NNE
DELTA 2 R/B (1) 4.2 02:52:14 47° SSE 02:52:36 48° SSE 02:57:54 10° E
Meteor 2-3 Rocket 3.7 02:51:41 10° S 02:57:18 79° E 03:03:01 10° NNE
Envisat 4.2 02:53:21 10° NNE 02:58:09 41° E 03:02:54 10° SSE
Cosmos 968 Rocket 3.4 03:02:25 73° SSE 03:02:51 81° ESE 03:08:00 10° NNE
USA 238 DEB 3.6 03:12:40 54° WNW 03:12:54 54° NW 03:19:33 10° NNE
USA 238 3.6 03:12:43 54° WNW 03:13:00 55° NW 03:19:39 10° NNE
Genesis I 4.4 03:14:31 37° NNE 03:15:11 40° NE 03:19:01 10° SE
Cosmos 921 Rocket 4.2 03:13:45 22° NNE 03:16:10 41° ENE 03:20:23 10° SE
Meteor 1-26 Rocket 4.4 03:11:22 11° N 03:17:01 77° E 03:22:44 10° SSE
BREEZE-M DEB (TANK) 3.5 03:15:56 47° NNW 03:17:11 64° NE 03:31:01 10° ESE
Gbstr 26 Del rocket 2.9 03:18:32 68° SE 03:18:32 68° SE 03:22:18 10° SE
USA 215 4.1 03:15:44 10° ESE 03:21:48 43° NNE 03:25:42 21° NNW
Cosmos 1570 Rocket 3.9 03:21:56 60° WNW 03:22:37 67° WSW 03:27:49 10° S
Cosmos 1812 3.9 03:21:51 16° NNE 03:24:34 41° E 03:28:12 10° SSE
Cosmos 2034 Rocket 4.1 03:24:10 45° WNW 03:25:14 49° W 03:31:14 10° SSW
Cosmos 1766 Rocket 4.5 03:22:44 10° SSE 03:26:55 48° E 03:31:05 10° NNE
Cosmos 1151 Rocket 4.1 03:25:26 10° N 03:29:40 45° E 03:33:51 10° SSE
Cosmos 1814 Rocket 4.2 03:32:11 45° WSW 03:32:11 45° WSW 03:36:55 10° S
Cosmos 2369 Rocket 2.0 03:30:53 10° SSW 03:36:27 73° WNW 03:42:03 10° NNE
Cosmos 1782 2.7 03:40:17 56° NW 03:40:48 62° W 03:44:40 10° S
Meteor 1-31 Rocket 2.7 03:37:22 10° NNE 03:41:17 88° E 03:45:11 10° SSW
Hubble Space Telescope 3.1 03:43:15 12° SSW 03:44:08 12° SSW 03:45:54 10° S
COSMO-SKYMED 1 2.5 03:40:16 10° SSE 03:44:35 88° E 03:48:36 12° NNW
Cosmos 1862 3.4 03:40:48 10° S 03:44:43 76° E 03:48:40 10° N
SJ-12 3.9 03:41:45 10° N 03:45:49 57° WNW 03:49:51 10° SSW
MOS 1-B Rocket 4.0 03:41:04 10° S 03:47:37 65° WSW 03:53:25 10° NNW
Cosmos 1634 Rocket 3.9 03:41:25 10° N 03:47:40 73° W 03:53:50 10° S
Tsikada Rocket 4.4 03:44:47 10° SW 03:50:27 38° WNW 03:56:14 10° N
Cosmos 1867 3.9 03:50:15 31° WNW 03:52:24 46° WSW 03:57:33 10° S
Helios 1B 4.5 03:49:23 10° S 03:53:40 68° WSW 03:57:21 14° NNW
Cosmos 2208 Rocket 4.4 03:52:18 27° NW 03:54:43 42° WSW 03:59:44 10° S
H-2A R/B 3.0 03:51:26 10° N 03:54:56 41° WNW 03:58:28 10° SW
Cosmos 1656 Rocket 3.5 03:55:14 10° SSW 04:00:34 63° WNW 04:05:59 10° NNE
Cosmos 1503 Rocket 4.0 03:56:51 10° SSW 04:02:05 86° WNW 04:07:26 10° NNE
Cosmos 1408 Rocket 4.3 03:58:09 10° S 04:02:21 55° E 04:06:33 10° NNE
CZ-4B R/B 3.8 03:59:51 10° NNE 04:03:18 44° E 04:06:44 10° S
TSX-5 4.3 03:58:10 13° NNW 04:03:28 79° WSW 04:07:55 10° SSE
CZ-2C R/B 2.7 04:00:14 10° S 04:05:41 59° W 04:11:03 10° NNW
Cosmos 1943 Rocket 3.5 04:06:38 19° NW 04:06:38 19° NW 04:10:23 10° N
CZ-4C R/B 2.6 04:06:12 10° SSE 04:09:21 86° WSW 04:12:30 10° NNW
Cosmos 1486 Rocket 4.4 04:04:50 10° SW 04:09:50 41° WNW 04:14:50 10° N
Cosmos 2180 Rocket 4.4 04:11:39 10° N 04:17:51 87° W 04:23:58 10° S
CENTAUR R/B 3.8 04:16:08 17° WNW 04:18:22 20° NNW 04:23:20 10° NNE
Cosmos 1515 Rocket 3.9 04:18:03 10° N 04:22:23 66° E 04:26:41 10° SSE
Meteor 2-19 Rocket 4.4 04:20:04 10° S 04:26:08 88° WNW 04:32:13 10° N
SJ 16-02 2.0 04:22:38 10° S 04:26:56 59° ESE 04:31:15 10° NNE
NOAA 11 4.2 04:23:57 10° N 04:29:21 62° WNW 04:34:45 10° SSW
NOAA 12 4.1 04:30:01 10° NNE 04:35:18 86° WNW 04:40:32 10° SSW
Meteor 2-8 Rocket 4.5 04:30:21 10° NNW 04:36:24 60° W 04:42:22 10° S
Cosmos 1340 Rocket 3.1 04:32:46 10° S 04:36:40 70° E 04:40:37 10° NNE
Envisat 4.1 04:33:02 10° NNW 04:36:51 22° WNW 04:40:40 10° WSW
Cosmos 1500 Rocket 3.7 04:34:04 10° S 04:38:30 80° E 04:42:59 10° N
DELTA 2 R/B (1) 3.6 04:33:19 10° W 04:38:53 84° N 04:44:27 10° E
Meteor 2-6 Rocket 4.5 04:34:01 10° NNW 04:39:06 43° W 04:44:09 10° SSW
Cosmos 2098 Rocket 4.3 04:37:40 10° WSW 04:40:19 18° WNW 04:43:21 10° NNW
ATLAS 3B R/B 2.9 04:37:59 10° SSW 04:44:24 74° ESE 04:51:09 10° NE
SL-27 R/B 2.9 04:42:58 10° N 04:46:32 63° ENE 04:50:01 10° SSE
Cosmos 1939 Rocket 2.7 04:42:55 10° N 04:46:50 71° WNW 04:50:40 10° SSW
BREEZE-M DEB (TANK) 4.2 04:32:28 10° NW 04:47:13 47° WSW 04:51:46 10° SSE
Cosmos 1805 Rocket 4.2 04:45:50 10° S 04:50:10 60° E 04:54:29 10° NNE
Sich 1 4.2 04:48:05 10° SSE 04:52:12 47° E 04:56:19 10° NNE
H-2A R/B 2.0 04:48:41 10° S 04:52:52 74° WSW 04:57:12 10° NNW
ATLAS 5 CENTAUR R/B 1.2 04:50:49 10° SW 04:54:33 70° NW 04:58:39 10° NNE
Okean O Rocket 4.3 04:52:04 10° NE 04:55:45 25° E 04:59:22 10° SSE
